QPF
0.00 0.00 0.00 0.00 0.00 0.00 0.00 0.00 0.00 0.01 0.01 0.01 0.01 0.01 0.01 0.02 0.03 0.04 0.06 0.05 0.04 0.03 0.04 0.05 0.06 0.11 0.11 0.12 0.16 0.18 0.24 0.28 0.27 0.25 0.22 0.20 0.19 0.16 0.13 0.10 0.08 0.05 0.03 0.02
0.00 0.00 0.00 0.00 0.00 0.00 0.00 0.00 0.00 0.00 0.01 0.01 0.00 0.00 0.01 0.02 0.03 0.05 0.07 0.05 0.04 0.06 0.06 0.05 0.06 0.08 0.08 0.10 0.13 0.15 0.19 0.23 0.27 0.23 0.22 0.19 0.19 0.17 0.14 0.11 0.09 0.07 0.05 0.03
0.00 0.00 0.00 0.00 0.00 0.00 0.00 0.00 0.00 0.00 0.00 0.00 0.00 0.01 0.01 0.01 0.02 0.03 0.05 0.04 0.04 0.05 0.04 0.04 0.05 0.05 0.06 0.08 0.09 0.10 0.14 0.21 0.28 0.23 0.20 0.22 0.23 0.21 0.16 0.12 0.08 0.06 0.04 0.03
0.00 0.00 0.00 0.00 0.00 0.00 0.00 0.00 0.00 0.00 0.00 0.00 0.00 0.01 0.02 0.03 0.03 0.04 0.05 0.07 0.06 0.07 0.04 0.03 0.04 0.04 0.04 0.06 0.06 0.07 0.10 0.17 0.27 0.23 0.20 0.18 0.14 0.12 0.08 0.06 0.06 0.06 0.04 0.03
0.00 0.00 0.00 0.00 0.00 0.00 0.00 0.00 0.00 0.00 0.00 0.00 0.00 0.01 0.03 0.03 0.06 0.06 0.08 0.07 0.06 0.04 0.03 0.03 0.03 0.03 0.03 0.04 0.05 0.06 0.07 0.10 0.18 0.17 0.19 0.20 0.16 0.12 0.10 0.08 0.07 0.07 0.06 0.04
0.00 0.00 0.00 0.00 0.00 0.00 0.00 0.00 0.00 0.00 0.00 0.01 0.01 0.03 0.05 0.04 0.05 0.07 0.08 0.06 0.05 0.03 0.03 0.03 0.03 0.03 0.03 0.03 0.04 0.06 0.05 0.06 0.10 0.12 0.14 0.21 0.21 0.16 0.12 0.08 0.06 0.05 0.04 0.04
0.00 0.00 0.00 0.00 0.00 0.00 0.00 0.00 0.00 0.00 0.01 0.03 0.02 0.04 0.05 0.05 0.04 0.05 0.05 0.03 0.03 0.02 0.02 0.02 0.02 0.02 0.02 0.02 0.03 0.03 0.04 0.05 0.05 0.08 0.11 0.14 0.20 0.16 0.12 0.09 0.07 0.05 0.03 0.02
0.00 0.00 0.00 0.00 0.00 0.00 0.00 0.00 0.00 0.00 0.01 0.03 0.04 0.05 0.07 0.08 0.05 0.04 0.04 0.03 0.02 0.02 0.02 0.02 0.01 0.01 0.01 0.02 0.02 0.02 0.03 0.04 0.06 0.08 0.10 0.12 0.18 0.18 0.14 0.12 0.08 0.04 0.02 0.01
0.00 0.00 0.00 0.00 0.00 0.00 0.00 0.00 0.00 0.00 0.00 0.02 0.05 0.10 0.16 0.11 0.08 0.07 0.05 0.04 0.04 0.04 0.03 0.03 0.02 0.01 0.01 0.01 0.01 0.02 0.04 0.07 0.08 0.08 0.10 0.13 0.16 0.17 0.16 0.13 0.11 0.07 0.04 0.03
0.00 0.00 0.00 0.00 0.00 0.00 0.00 0.00 0.00 0.00 0.01 0.03 0.07 0.11 0.14 0.10 0.08 0.07 0.07 0.07 0.09 0.09 0.06 0.03 0.02 0.02 0.02 0.02 0.01 0.02 0.04 0.10 0.17 0.16 0.15 0.16 0.19 0.19 0.17 0.15 0.11 0.10 0.08 0.07
0.00 0.00 0.00 0.00 0.00 0.00 0.00 0.00 0.00 0.00 0.00 0.01 0.05 0.08 0.06 0.05 0.05 0.06 0.08 0.11 0.11 0.09 0.05 0.03 0.03 0.02 0.03 0.03 0.03 0.04 0.05 0.15 0.25 0.20 0.16 0.15 0.18 0.19 0.17 0.13 0.11 0.10 0.10 0.08
0.00 0.00 0.00 0.00 0.00 0.00 0.00 0.00 0.00 0.00 0.00 0.01 0.02 0.04 0.04 0.07 0.07 0.09 0.09 0.09 0.09 0.09 0.06 0.04 0.04 0.04 0.06 0.06 0.06 0.09 0.10 0.17 0.19 0.14 0.13 0.13 0.14 0.15 0.16 0.16 0.14 0.14 0.11 0.07
0.00 0.00 0.00 0.00 0.01 0.01 0.01 0.00 0.01 0.01 0.00 0.01 0.02 0.03 0.04 0.05 0.04 0.07 0.08 0.07 0.10 0.14 0.11 0.07 0.05 0.06 0.09 0.07 0.08 0.10 0.13 0.13 0.11 0.13 0.13 0.14 0.18 0.16 0.18 0.19 0.16 0.14 0.12 0.09
0.00 0.00 0.00 0.01 0.01 0.01 0.01 0.01 0.01 0.00 0.00 0.01 0.01 0.02 0.04 0.06 0.05 0.05 0.08 0.10 0.14 0.19 0.13 0.08 0.08 0.07 0.07 0.07 0.08 0.10 0.12 0.11 0.10 0.11 0.12 0.13 0.17 0.16 0.18 0.18 0.17 0.14 0.11 0.11
0.00 0.00 0.00 0.00 0.01 0.00 0.00 0.00 0.00 0.00 0.00 0.00 0.01 0.02 0.05 0.07 0.06 0.06 0.09 0.18 0.24 0.16 0.08 0.06 0.06 0.06 0.06 0.05 0.06 0.07 0.08 0.07 0.07 0.08 0.08 0.09 0.10 0.13 0.16 0.17 0.17 0.15 0.14 0.11
0.00 0.00 0.00 0.00 0.00 0.00 0.00 0.00 0.00 0.01 0.01 0.01 0.01 0.05 0.09 0.09 0.07 0.08 0.07 0.09 0.12 0.11 0.07 0.07 0.06 0.05 0.06 0.05 0.04 0.04 0.05 0.06 0.05 0.06 0.08 0.07 0.06 0.08 0.11 0.12 0.14 0.12 0.14 0.14
0.01 0.01 0.01 0.00 0.00 0.00 0.00 0.01 0.02 0.02 0.01 0.01 0.02 0.06 0.09 0.11 0.08 0.08 0.07 0.06 0.06 0.08 0.07 0.08 0.10 0.09 0.08 0.10 0.08 0.05 0.05 0.06 0.06 0.07 0.09 0.08 0.08 0.08 0.11 0.10 0.10 0.10 0.12 0.15
0.02 0.02 0.01 0.01 0.01 0.01 0.01 0.01 0.02 0.02 0.02 0.02 0.03 0.06 0.08 0.11 0.10 0.08 0.06 0.06 0.07 0.08 0.08 0.08 0.10 0.11 0.11 0.11 0.12 0.10 0.08 0.07 0.08 0.12 0.14 0.12 0.11 0.12 0.13 0.12 0.10 0.10 0.10 0.12
0.01 0.02 0.02 0.02 0.01 0.01 0.02 0.02 0.02 0.02 0.05 0.04 0.05 0.09 0.11 0.09 0.07 0.05 0.05 0.06 0.10 0.12 0.10 0.10 0.10 0.10 0.11 0.11 0.11 0.11 0.11 0.12 0.11 0.13 0.14 0.13 0.14 0.15 0.15 0.12 0.11 0.11 0.12 0.13
0.00 0.01 0.02 0.02 0.02 0.02 0.02 0.01 0.02 0.02 0.06 0.05 0.04 0.07 0.11 0.08 0.07 0.06 0.05 0.05 0.06 0.08 0.09 0.09 0.11 0.08 0.08 0.08 0.07 0.08 0.10 0.12 0.14 0.12 0.10 0.08 0.09 0.12 0.15 0.15 0.14 0.15 0.15 0.15
0.02 0.03 0.03 0.03 0.02 0.03 0.01 0.00 0.01 0.03 0.06 0.05 0.06 0.08 0.13 0.13 0.10 0.08 0.07 0.06 0.06 0.06 0.09 0.09 0.09 0.08 0.08 0.08 0.08 0.09 0.10 0.12 0.11 0.09 0.09 0.10 0.12 0.13 0.14 0.17 0.17 0.17 0.17 0.16
0.03 0.04 0.04 0.03 0.03 0.04 0.01 0.01 0.02 0.03 0.04 0.06 0.09 0.13 0.12 0.12 0.08 0.06 0.07 0.09 0.07 0.06 0.07 0.08 0.08 0.07 0.07 0.07 0.08 0.08 0.08 0.09 0.10 0.11 0.12 0.14 0.16 0.15 0.15 0.15 0.14 0.16 0.17 0.19
0.04 0.04 0.04 0.04 0.04 0.04 0.02 0.02 0.02 0.03 0.07 0.09 0.08 0.08 0.08 0.09 0.07 0.06 0.07 0.10 0.14 0.13 0.11 0.10 0.08 0.10 0.09 0.08 0.08 0.08 0.07 0.07 0.09 0.11 0.13 0.15 0.15 0.13 0.12 0.11 0.10 0.09 0.10 0.09
0.05 0.04 0.03 0.05 0.05 0.03 0.02 0.02 0.02 0.04 0.05 0.06 0.07 0.06 0.06 0.09 0.09 0.07 0.07 0.12 0.19 0.25 0.20 0.13 0.08 0.07 0.08 0.08 0.08 0.07 0.07 0.07 0.09 0.09 0.09 0.10 0.10 0.08 0.07 0.07 0.06 0.06 0.06 0.06
0.06 0.06 0.05 0.05 0.05 0.04 0.03 0.02 0.02 0.03 0.04 0.04 0.05 0.07 0.10 0.05 0.05 0.05 0.05 0.07 0.12 0.19 0.17 0.10 0.05 0.05 0.06 0.06 0.07 0.07 0.07 0.08 0.09 0.09 0.09 0.09 0.09 0.08 0.07 0.07 0.06 0.06 0.06 0.06
0.06 0.06 0.05 0.04 0.04 0.04 0.04 0.02 0.03 0.05 0.05 0.06 0.07 0.06 0.08 0.07 0.05 0.05 0.04 0.04 0.05 0.11 0.13 0.08 0.06 0.04 0.04 0.04 0.04 0.05 0.06 0.07 0.08 0.08 0.09 0.09 0.08 0.07 0.06 0.05 0.05 0.05 0.06 0.05
MSLP
1009.99 1010.70 1011.14 1011.33 1011.29 1011.09 1010.81 1010.50 1010.20 1009.94 1009.71 1009.48 1009.26 1009.01 1008.74 1008.47 1008.24 1008.06 1007.95 1007.94 1008.00 1008.12 1008.28 1008.45 1008.62 1008.77 1008.94 1009.13 1009.38 1009.72 1010.17 1010.71 1011.32 1011.98 1012.65 1013.27 1013.82 1014.27 1014.63 1014.91 1015.14 1015.36 1015.58 1015.84
1010.49 1010.98 1011.19 1011.16 1010.97 1010.72 1010.50 1010.36 1010.33 1010.37 1010.43 1010.46 1010.40 1010.22 1009.93 1009.56 1009.16 1008.82 1008.56 1008.43 1008.42 1008.53 1008.69 1008.88 1009.04 1009.18 1009.30 1009.42 1009.58 1009.84 1010.21 1010.71 1011.32 1011.99 1012.68 1013.33 1013.89 1014.33 1014.66 1014.89 1015.06 1015.22 1015.41 1015.66
1010.69 1010.95 1010.92 1010.69 1010.39 1010.14 1010.04 1010.13 1010.41 1010.79 1011.18 1011.47 1011.58 1011.47 1011.14 1010.65 1010.07 1009.52 1009.08 1008.81 1008.71 1008.77 1008.93 1009.14 1009.34 1009.49 1009.59 1009.68 1009.80 1010.00 1010.32 1010.78 1011.37 1012.04 1012.74 1013.40 1013.97 1014.40 1014.70 1014.89 1015.01 1015.13 1015.29 1015.52
1010.57 1010.60 1010.36 1009.98 1009.62 1009.42 1009.49 1009.86 1010.46 1011.20 1011.92 1012.47 1012.75 1012.69 1012.30 1011.66 1010.88 1010.11 1009.46 1009.02 1008.81 1008.81 1008.97 1009.21 1009.45 1009.65 1009.78 1009.88 1009.98 1010.15 1010.43 1010.86 1011.42 1012.09 1012.78 1013.44 1014.01 1014.44 1014.73 1014.90 1015.01 1015.10 1015.23 1015.45
1010.17 1010.00 1009.59 1009.12 1008.76 1008.67 1008.95 1009.60 1010.54 1011.61 1012.62 1013.40 1013.81 1013.78 1013.32 1012.52 1011.54 1010.54 1009.68 1009.07 1008.74 1008.68 1008.83 1009.11 1009.41 1009.66 1009.85 1009.97 1010.08 1010.24 1010.50 1010.89 1011.42 1012.06 1012.74 1013.40 1013.98 1014.42 1014.72 1014.90 1015.01 1015.10 1015.23 1015.44
1009.58 1009.25 1008.75 1008.25 1007.95 1008.01 1008.51 1009.43 1010.66 1012.01 1013.26 1014.21 1014.70 1014.66 1014.12 1013.17 1012.00 1010.81 1009.76 1008.98 1008.55 1008.43 1008.58 1008.89 1009.24 1009.56 1009.81 1009.97 1010.10 1010.24 1010.47 1010.83 1011.32 1011.92 1012.58 1013.24 1013.83 1014.30 1014.64 1014.86 1015.00 1015.12 1015.26 1015.47
1008.89 1008.47 1007.94 1007.49 1007.31 1007.54 1008.24 1009.39 1010.84 1012.39 1013.79 1014.83 1015.36 1015.29 1014.66 1013.59 1012.27 1010.92 1009.73 1008.84 1008.31 1008.16 1008.30 1008.63 1009.03 1009.41 1009.70 1009.89 1010.03 1010.16 1010.36 1010.67 1011.12 1011.68 1012.32 1012.97 1013.58 1014.09 1014.48 1014.76 1014.96 1015.13 1015.30 1015.52
1008.18 1007.76 1007.29 1006.94 1006.91 1007.31 1008.18 1009.49 1011.08 1012.72 1014.18 1015.24 1015.74 1015.62 1014.92 1013.76 1012.35 1010.91 1009.64 1008.68 1008.11 1007.94 1008.08 1008.42 1008.85 1009.25 1009.56 1009.78 1009.91 1010.03 1010.19 1010.46 1010.85 1011.37 1011.98 1012.62 1013.25 1013.80 1014.26 1014.61 1014.88 1015.10 1015.32 1015.56
1007.53 1007.18 1006.84 1006.66 1006.78 1007.34 1008.33 1009.72 1011.33 1012.96 1014.37 1015.37 1015.80 1015.62 1014.87 1013.68 1012.25 1010.80 1009.52 1008.57 1008.00 1007.82 1007.95 1008.30 1008.73 1009.13 1009.45 1009.66 1009.79 1009.89 1010.02 1010.24 1010.59 1011.06 1011.64 1012.27 1012.90 1013.49 1014.00 1014.41 1014.75 1015.03 1015.29 1015.55
1006.96 1006.77 1006.61 1006.62 1006.91 1007.59 1008.64 1010.01 1011.55 1013.06 1014.34 1015.20 1015.53 1015.29 1014.52 1013.36 1011.98 1010.61 1009.40 1008.51 1007.98 1007.82 1007.95 1008.29 1008.70 1009.09 1009.39 1009.59 1009.71 1009.79 1009.90 1010.09 1010.40 1010.84 1011.38 1011.99 1012.61 1013.21 1013.74 1014.20 1014.58 1014.91 1015.20 1015.48
1006.49 1006.51 1006.57 1006.78 1007.23 1007.98 1009.02 1010.29 1011.67 1012.98 1014.05 1014.73 1014.94 1014.64 1013.89 1012.81 1011.56 1010.33 1009.27 1008.48 1008.03 1007.91 1008.05 1008.36 1008.74 1009.10 1009.39 1009.58 1009.70 1009.78 1009.89 1010.08 1010.37 1010.77 1011.27 1011.84 1012.44 1013.01 1013.54 1013.99 1014.39 1014.73 1015.03 1015.31
1006.12 1006.37 1006.66 1007.06 1007.63 1008.41 1009.38 1010.49 1011.64 1012.68 1013.50 1013.98 1014.05 1013.72 1013.02 1012.07 1011.00 1009.97 1009.09 1008.46 1008.12 1008.04 1008.19 1008.48 1008.82 1009.15 1009.42 1009.62 1009.75 1009.87 1010.01 1010.21 1010.50 1010.88 1011.34 1011.86 1012.39 1012.91 1013.38 1013.81 1014.17 1014.50 1014.79 1015.07
1005.85 1006.33 1006.83 1007.39 1008.05 1008.81 1009.66 1010.56 1011.44 1012.19 1012.74 1013.00 1012.96 1012.60 1011.99 1011.20 1010.34 1009.54 1008.87 1008.41 1008.18 1008.16 1008.32 1008.58 1008.89 1009.19 1009.46 1009.67 1009.85 1010.02 1010.22 1010.46 1010.77 1011.14 1011.56 1012.01 1012.46 1012.88 1013.27 1013.62 1013.94 1014.22 1014.49 1014.75
1005.70 1006.37 1007.04 1007.72 1008.41 1009.12 1009.83 1010.50 1011.09 1011.55 1011.84 1011.91 1011.76 1011.40 1010.88 1010.27 1009.64 1009.07 1008.62 1008.33 1008.21 1008.24 1008.40 1008.64 1008.91 1009.19 1009.46 1009.70 1009.94 1010.19 1010.46 1010.76 1011.10 1011.46 1011.84 1012.21 1012.56 1012.88 1013.17 1013.42 1013.66 1013.90 1014.14 1014.39
1005.70 1006.50 1007.27 1008.02 1008.71 1009.34 1009.89 1010.34 1010.66 1010.86 1010.91 1010.82 1010.58 1010.24 1009.83 1009.39 1008.97 1008.62 1008.37 1008.23 1008.20 1008.27 1008.42 1008.63 1008.86 1009.12 1009.39 1009.67 1009.97 1010.29 1010.64 1011.00 1011.37 1011.74 1012.07 1012.37 1012.62 1012.83 1013.01 1013.18 1013.35 1013.54 1013.77 1014.02
1005.87 1006.73 1007.56 1008.31 1008.97 1009.50 1009.90 1010.14 1010.25 1010.22 1010.08 1009.86 1009.57 1009.26 1008.94 1008.66 1008.43 1008.27 1008.18 1008.16 1008.20 1008.28 1008.41 1008.57 1008.76 1008.98 1009.24 1009.54 1009.89 1010.27 1010.68 1011.10 1011.49 1011.85 1012.15 1012.38 1012.55 1012.68 1012.77 1012.87 1013.00 1013.18 1013.40 1013.69
1006.23 1007.08 1007.90 1008.63 1009.23 1009.66 1009.92 1010.01 1009.93 1009.74 1009.47 1009.15 1008.84 1008.56 1008.34 1008.19 1008.11 1008.09 1008.12 1008.17 1008.25 1008.32 1008.41 1008.50 1008.62 1008.79 1009.01 1009.31 1009.66 1010.08 1010.52 1010.97 1011.38 1011.73 1012.00 1012.19 1012.31 1012.38 1012.44 1012.51 1012.64 1012.83 1013.10 1013.43
1006.76 1007.57 1008.34 1009.01 1009.53 1009.88 1010.03 1009.99 1009.80 1009.50 1009.14 1008.78 1008.46 1008.21 1008.06 1008.01 1008.04 1008.12 1008.22 1008.32 1008.39 1008.43 1008.45 1008.46 1008.49 1008.58 1008.73 1008.98 1009.31 1009.71 1010.15 1010.60 1011.00 1011.35 1011.61 1011.78 1011.90 1011.97 1012.03 1012.14 1012.31 1012.57 1012.91 1013.32
1007.46 1008.17 1008.86 1009.46 1009.91 1010.18 1010.26 1010.14 1009.88 1009.51 1009.11 1008.73 1008.42 1008.21 1008.12 1008.13 1008.23 1008.36 1008.50 1008.60 1008.65 1008.63 1008.57 1008.48 1008.41 1008.39 1008.45 1008.61 1008.87 1009.22 1009.62 1010.03 1010.43 1010.76 1011.03 1011.23 1011.37 1011.49 1011.63 1011.82 1012.09 1012.44 1012.88 1013.39
1008.24 1008.86 1009.46 1009.98 1010.36 1010.57 1010.59 1010.43 1010.13 1009.74 1009.32 1008.94 1008.65 1008.46 1008.40 1008.46 1008.59 1008.74 1008.89 1008.98 1008.99 1008.91 1008.77 1008.58 1008.40 1008.27 1008.22 1008.27 1008.43 1008.69 1009.02 1009.39 1009.76 1010.10 1010.39 1010.64 1010.86 1011.07 1011.32 1011.63 1012.02 1012.50 1013.05 1013.65
1009.06 1009.59 1010.10 1010.54 1010.85 1011.01 1010.99 1010.80 1010.49 1010.09 1009.67 1009.30 1009.01 1008.84 1008.80 1008.87 1009.01 1009.17 1009.31 1009.38 1009.36 1009.24 1009.03 1008.77 1008.49 1008.26 1008.09 1008.03 1008.09 1008.25 1008.50 1008.81 1009.15 1009.50 1009.83 1010.15 1010.47 1010.81 1011.20 1011.65 1012.17 1012.77 1013.42 1014.10
1009.86 1010.30 1010.73 1011.09 1011.34 1011.44 1011.38 1011.18 1010.85 1010.45 1010.03 1009.66 1009.37 1009.20 1009.16 1009.23 1009.36 1009.53 1009.66 1009.73 1009.70 1009.57 1009.33 1009.03 1008.70 1008.39 1008.14 1007.98 1007.94 1008.01 1008.18 1008.44 1008.76 1009.12 1009.50 1009.90 1010.34 1010.80 1011.33 1011.91 1012.56 1013.25 1013.98 1014.70
1010.57 1010.95 1011.30 1011.58 1011.76 1011.81 1011.71 1011.47 1011.12 1010.70 1010.28 1009.90 1009.60 1009.42 1009.37 1009.43 1009.56 1009.73 1009.88 1009.98 1009.98 1009.87 1009.65 1009.36 1009.02 1008.69 1008.39 1008.18 1008.06 1008.06 1008.18 1008.40 1008.70 1009.07 1009.50 1009.98 1010.51 1011.10 1011.74 1012.43 1013.16 1013.92 1014.68 1015.41
1011.19 1011.51 1011.79 1012.00 1012.10 1012.08 1011.92 1011.63 1011.25 1010.80 1010.35 1009.95 1009.64 1009.44 1009.37 1009.42 1009.57 1009.76 1009.95 1010.10 1010.17 1010.14 1010.00 1009.77 1009.49 1009.18 1008.90 1008.66 1008.52 1008.48 1008.55 1008.74 1009.03 1009.41 1009.88 1010.42 1011.02 1011.68 1012.40 1013.15 1013.93 1014.71 1015.46 1016.17
1011.71 1011.98 1012.19 1012.32 1012.34 1012.23 1012.01 1011.66 1011.23 1010.74 1010.26 1009.83 1009.49 1009.28 1009.20 1009.26 1009.42 1009.65 1009.91 1010.14 1010.32 1010.40 1010.39 1010.28 1010.10 1009.87 1009.64 1009.44 1009.30 1009.25 1009.30 1009.46 1009.74 1010.12 1010.60 1011.17 1011.81 1012.51 1013.25 1014.02 1014.80 1015.55 1016.26 1016.91
1012.15 1012.38 1012.52 1012.56 1012.50 1012.31 1012.01 1011.60 1011.12 1010.60 1010.08 1009.63 1009.27 1009.04 1008.96 1009.03 1009.23 1009.52 1009.86 1010.20 1010.50 1010.73 1010.87 1010.91 1010.86 1010.75 1010.61 1010.46 1010.35 1010.31 1010.35 1010.50 1010.76 1011.12 1011.59 1012.15 1012.78 1013.48 1014.21 1014.95 1015.68 1016.38 1017.02 1017.60
Thickness
5796 5778 5766 5773 5779 5777 5776 5772 5771 5789 5813 5807 5799 5796 5802 5808 5807 5802 5797 5795 5793 5791 5792 5788 5785 5781 5776 5771 5766 5762 5758 5754 5751 5746 5743 5741 5741 5742 5742 5744 5744 5744 5744 5743
5775 5767 5782 5789 5789 5784 5778 5770 5774 5792 5810 5804 5791 5789 5799 5804 5803 5801 5797 5794 5793 5789 5786 5785 5782 5779 5774 5769 5764 5760 5756 5752 5750 5747 5744 5742 5741 5741 5741 5741 5741 5742 5742 5742
5763 5777 5793 5787 5782 5778 5777 5773 5779 5785 5799 5798 5787 5774 5783 5795 5800 5801 5799 5797 5794 5791 5786 5784 5780 5776 5772 5767 5763 5760 5755 5752 5749 5746 5742 5738 5736 5736 5736 5737 5738 5740 5740 5740
5770 5786 5788 5782 5780 5781 5768 5793 5795 5793 5778 5761 5773 5747 5769 5780 5786 5791 5792 5792 5789 5791 5788 5783 5779 5774 5771 5768 5764 5760 5755 5751 5748 5745 5741 5737 5735 5733 5736 5737 5737 5738 5739 5739
5768 5784 5781 5777 5786 5791 5784 5802 5797 5791 5773 5755 5759 5746 5753 5771 5772 5779 5785 5789 5788 5789 5786 5782 5779 5775 5771 5768 5763 5758 5754 5750 5747 5744 5742 5738 5736 5736 5736 5736 5735 5735 5736 5737
5775 5791 5790 5790 5800 5803 5802 5795 5783 5768 5752 5733 5746 5741 5741 5758 5770 5777 5784 5786 5786 5786 5785 5781 5777 5773 5768 5765 5760 5756 5751 5748 5745 5743 5741 5739 5736 5735 5733 5733 5733 5733 5733 5734
5760 5778 5794 5800 5787 5795 5792 5759 5731 5730 5718 5722 5745 5742 5743 5771 5782 5783 5782 5784 5784 5784 5781 5776 5772 5768 5765 5761 5759 5755 5750 5746 5746 5744 5742 5740 5738 5737 5735 5734 5733 5732 5731 5732
5739 5749 5784 5797 5789 5779 5780 5759 5727 5716 5713 5720 5739 5736 5753 5778 5786 5789 5789 5787 5782 5778 5777 5775 5773 5769 5765 5762 5759 5755 5751 5747 5746 5744 5742 5741 5739 5737 5736 5735 5734 5733 5733 5733
5741 5749 5790 5803 5807 5795 5777 5764 5762 5736 5727 5716 5724 5740 5759 5777 5778 5781 5783 5781 5777 5777 5775 5772 5771 5769 5766 5762 5759 5756 5752 5748 5746 5744 5742 5740 5738 5737 5736 5735 5734 5733 5733 5733
5757 5749 5775 5795 5803 5798 5791 5778 5749 5733 5714 5706 5717 5727 5736 5758 5764 5769 5771 5771 5773 5775 5771 5769 5768 5767 5765 5762 5759 5756 5753 5750 5747 5744 5742 5740 5738 5737 5735 5734 5732 5732 5732 5732
5765 5747 5759 5774 5772 5771 5775 5767 5750 5733 5727 5710 5704 5722 5763 5766 5769 5769 5770 5770 5771 5771 5770 5767 5766 5765 5763 5761 5757 5753 5751 5748 5745 5743 5742 5739 5737 5736 5735 5733 5732 5732 5731 5731
5766 5745 5737 5756 5778 5788 5776 5764 5748 5728 5725 5721 5712 5725 5772 5772 5772 5770 5768 5767 5767 5766 5766 5765 5764 5762 5758 5756 5754 5752 5750 5747 5745 5743 5741 5738 5736 5734 5733 5732 5731 5730 5729 5729
5764 5740 5725 5731 5745 5763 5763 5762 5755 5739 5726 5717 5711 5728 5766 5766 5766 5766 5764 5762 5760 5759 5759 5759 5758 5756 5754 5753 5751 5749 5748 5746 5744 5741 5738 5736 5735 5732 5731 5730 5730 5729 5728 5727
5770 5737 5726 5720 5728 5745 5750 5754 5754 5739 5718 5717 5725 5736 5748 5753 5756 5757 5756 5756 5755 5753 5753 5753 5752 5752 5750 5748 5748 5746 5744 5744 5742 5739 5736 5734 5733 5732 5730 5729 5728 5727 5726 5724
5757 5733 5738 5740 5750 5752 5751 5751 5751 5743 5735 5726 5731 5736 5745 5751 5753 5754 5754 5754 5752 5749 5748 5748 5747 5746 5744 5744 5743 5742 5741 5740 5739 5736 5734 5732 5731 5730 5728 5726 5725 5724 5723 5722
5739 5728 5729 5730 5743 5745 5742 5746 5748 5745 5742 5737 5736 5734 5748 5751 5752 5749 5749 5749 5746 5745 5746 5746 5745 5743 5740 5740 5740 5739 5738 5737 5735 5732 5730 5730 5728 5727 5725 5724 5722 5720 5719 5718
5722 5718 5709 5707 5726 5730 5717 5731 5735 5733 5735 5734 5725 5729 5740 5739 5740 5738 5740 5742 5741 5741 5743 5742 5742 5741 5739 5738 5738 5736 5734 5733 5730 5727 5726 5725 5724 5723 5721 5720 5718 5716 5715 5714
5716 5706 5695 5695 5704 5693 5709 5733 5734 5726 5722 5727 5727 5730 5732 5731 5731 5732 5733 5732 5733 5735 5735 5736 5736 5735 5735 5736 5734 5732 5730 5728 5726 5723 5721 5720 5719 5718 5716 5714 5713 5712 5711 5708
5716 5703 5688 5679 5680 5690 5709 5720 5721 5712 5704 5716 5717 5720 5723 5725 5724 5720 5725 5726 5726 5727 5728 5729 5729 5729 5730 5730 5729 5727 5724 5723 5721 5718 5716 5715 5714 5713 5711 5709 5707 5706 5703 5700
5705 5699 5684 5676 5674 5670 5691 5712 5722 5712 5690 5707 5710 5710 5712 5714 5703 5705 5714 5718 5719 5719 5721 5722 5722 5722 5721 5722 5722 5720 5717 5715 5714 5713 5712 5711 5710 5709 5706 5704 5701 5698 5694 5690
5680 5678 5674 5670 5668 5674 5690 5706 5712 5686 5684 5699 5702 5704 5704 5701 5699 5701 5706 5707 5708 5709 5712 5713 5712 5711 5711 5713 5714 5712 5710 5709 5709 5709 5707 5705 5704 5702 5700 5697 5693 5690 5686 5683
5666 5663 5663 5662 5657 5662 5686 5691 5683 5679 5688 5691 5693 5695 5695 5693 5693 5693 5694 5694 5695 5696 5700 5702 5700 5699 5701 5704 5705 5703 5702 5703 5703 5701 5699 5697 5696 5695 5692 5688 5684 5681 5678 5673
5660 5661 5660 5659 5657 5666 5674 5675 5677 5678 5678 5682 5683 5685 5687 5686 5683 5683 5683 5684 5683 5684 5686 5687 5688 5688 5689 5691 5694 5693 5693 5694 5693 5690 5688 5685 5684 5682 5681 5678 5674 5670 5667 5662
5655 5661 5657 5653 5655 5660 5664 5667 5670 5672 5674 5676 5676 5677 5677 5677 5676 5675 5674 5673 5673 5673 5673 5674 5676 5676 5676 5678 5680 5682 5683 5684 5683 5678 5675 5673 5671 5668 5666 5664 5662 5658 5653 5649
5648 5652 5647 5645 5648 5652 5655 5657 5660 5663 5666 5667 5667 5667 5668 5668 5666 5665 5663 5662 5662 5662 5661 5662 5663 5663 5663 5665 5667 5669 5670 5672 5670 5667 5663 5660 5657 5654 5650 5647 5643 5642 5639 5637
5640 5641 5640 5639 5643 5642 5644 5648 5652 5653 5654 5657 5657 5656 5656 5657 5655 5653 5652 5651 5651 5650 5649 5649 5650 5650 5650 5652 5653 5655 5657 5659 5657 5653 5650 5648 5644 5640 5638 5634 5628 5625 5624 5621